This is the latest recevied weather packets stored in our database for station/object KE5KUL-13. If no packets are shown the sender has not sent any weather packets the latest 10 day(s).
| Time | Temp. | Humidity | Pressure | Rain* | Wind** | Luminosity | Snow |
|---|---|---|---|---|---|---|---|
| 1777998018 | 17.78° C | 43% | 1012 hPa | 0 mm | - | - | - |
| 1777997437 | 16.67° C | 43% | 1011.7 hPa | 0 mm | - | - | - |
| 1777996818 | 15.56° C | 44% | 1011.1 hPa | 0 mm | - | - | - |
| 1777996218 | 15.56° C | 46% | 1011.3 hPa | 0 mm | - | - | - |
| 1777995618 | 15.56° C | 45% | 1011.2 hPa | 0 mm | - | - | - |
| 1777995018 | 15.56° C | 45% | 1011.1 hPa | 0 mm | - | - | - |
| 1777994418 | 15.56° C | 45% | 1011.1 hPa | 0 mm | - | - | - |
| 1777993818 | 15.56° C | 46% | 1010.7 hPa | 0 mm | - | - | - |
| 1777993218 | 15° C | 45% | 1010.6 hPa | 0 mm | - | - | - |
| 1777992618 | 15° C | 45% | 1010.6 hPa | 0 mm | - | - | - |
| 1777992018 | 14.44° C | 46% | 1010.8 hPa | 0 mm | - | - | - |
| 1777991418 | 13.89° C | 46% | 1010.7 hPa | 0 mm | - | - | - |
| 1777990818 | 13.33° C | 48% | 1010.3 hPa | 0 mm | - | - | - |
| 1777989618 | 12.22° C | 50% | 1010.5 hPa | 0 mm | - | - | - |
| 1777989018 | 12.22° C | 50% | 1010 hPa | 0 mm | - | - | - |
| 1777988418 | 11.67° C | 51% | 1009.8 hPa | 0 mm | - | - | - |
| 1777987818 | 11.67° C | 51% | 1009.3 hPa | 0 mm | - | - | - |
| 1777987218 | 11.67° C | 52% | 1008.8 hPa | 0 mm | - | - | - |
| 1777986618 | 11.67° C | 53% | 1008.4 hPa | 0 mm | - | - | - |
| 1777986018 | 11.67° C | 53% | 1008.4 hPa | 0 mm | - | - | - |
| 1777985418 | 11.67° C | 53% | 1008.3 hPa | 0 mm | - | - | - |
| 1777984818 | 11.67° C | 53% | 1008.1 hPa | 0 mm | - | - | - |
| 1777984218 | 11.67° C | 54% | 1008.4 hPa | 0 mm | - | - | - |
| 1777983618 | 12.22° C | 54% | 1008.2 hPa | 0 mm | - | - | - |
| 1777983018 | 12.22° C | 54% | 1007.9 hPa | 0 mm | - | - | - |
* Rain latest hour (hover to see other rain measurements)
** Current wind speed in m/s (hover to see current wind gust speed)